Regional Weather Roundup
Issued by NWS Cleveland, OH

Home | Current Version | Previous Version | Graphics & Text | Print | Product List | Glossary On
Versions: 1 2 3 4 5 6 7 8 9 10 11 12 13 14 15 16 17 18 19 20 21 22 23 24 25 26 27 28 29 30 31 32 33 34 35 36 37 38 39 40 41 42 43 44 45 46 47 48 49 50
000
ASUS41 KCLE 290902
RWRCLE
OHIO REGIONAL WEATHER ROUNDUP
NATIONAL WEATHER SERVICE CLEVELAND, OH
400 AM EST THU JAN 29 2015

NOTE: "FAIR" INDICATES FEW OR NO CLOUDS BELOW 12,000 FEET WITH NO
SIGNIFICANT WEATHER AND/OR OBSTRUCTIONS TO VISIBILITY.

OHZ001>008-015>018-024>027-034-035-043-044-291000-
   NORTHWEST OHIO

CITY           SKY/WX    TMP DP  RH WIND       PRES   REMARKS
DEFIANCE       CLOUDY    31  20  63 SE8       29.92F WCI  23
FINDLAY        CLOUDY    29  19  66 SE15      29.95F WCI  18
TOLEDO EXPRESS CLOUDY    27  18  69 SE7       29.95F WCI  19
TOLEDO EXEC    CLOUDY    29  18  63 S14       29.97F WCI  18
LIMA           CLOUDY    31  20  63 S16       29.93F WCI  20
$$

OHZ009>014-019>023-028>033-038-089-291000-
   NORTHEAST OHIO

CITY           SKY/WX    TMP DP  RH WIND       PRES   REMARKS
CLE-HOPKINS    CLOUDY    28  10  46 S14       30.08F WCI  17
CLE-LAKEFRONT  CLOUDY    29   9  43 SE15G28   30.06F WCI  18
CUY CO. ARPT   NOT AVBL
LORAIN-ELYRIA  CLOUDY    27  13  55 S18       30.03F WCI  14
ASHTABULA      CLOUDY    25  10  53 S13G21    30.12F WCI  14
AKRON-CANTON   CLOUDY    26  12  55 S14       30.09F WCI  14
WOOSTER        CLOUDY    25  15  66 S12       30.06F WCI  14
MANSFIELD      MOCLDY    26  15  63 SE18      30.01F WCI  13
YOUNGSTOWN     CLOUDY    22  12  65 SE12      30.12F WCI  10
$$

OHZ042-051>053-060>062-070>072-077>081-291000-
  SOUTHWEST OHIO

CITY           SKY/WX    TMP DP  RH WIND       PRES   REMARKS
CINC-COVINGTON CLOUDY    34  21  59 S14       30.00F WCI  25
CINC-LUNKEN    CLOUDY    32  21  64 S10       30.04F WCI  24
HAMILTON       CLOUDY    34  20  56 VRB3      30.01F
DAYTON         CLOUDY    33  21  61 S16       29.97F WCI  23
WRIGHT-PAT AFB CLOUDY    30  21  67 S12       30.00F WCI  21
DAYTON GENERAL CLOUDY    33  21  61 S16       29.98F WCI  23
WILMINGTON     CLOUDY    31  19  61 S14       30.00F WCI  21
$$

OHZ036-037-039>041-045>050-054>059-063>069-073>076-082>088-291000-
  CENTRAL AND SOUTHEAST OHIO

CITY           SKY/WX    TMP DP  RH WIND       PRES   REMARKS
COLUMBUS       CLOUDY    27  17  66 SE9       30.07F WCI  18
OSU AIRPORT    MOCLDY    27  17  66 SE9       30.04F WCI  18
BOLTON FIELD   NOT AVBL
RICKENBACK AFB NOT AVBL
NEWARK         PTCLDY    26  16  65 S3        30.09F
MARION         CLOUDY    28  17  63 S18G25    30.00F WCI  15
LANCASTER      MOCLDY    27  17  66 SE7       30.09F WCI  19
ZANESVILLE     PTCLDY    25  14  63 SE8       30.10F WCI  16
NEW PHILLY     CLOUDY    25  14  63 S5        30.13F WCI  19
$$


USA.gov is the U.S. government's official web portal to all federal, state and local government web resources and services.